User: anonymous   Login
Location: B�retswil
(47.3376°N, 8.8534°E)
Time: 19:44:14
(UTC+00:00)
Language:

MOS 1 - Orbit

View from above orbital plane
View from above orbital plane
View from above satellite
View from above satellite

Ground track
Ground track

The orbit data is extracted from the following two-line orbital elements,

1 17527U 87018A   21335.37788266 -.00000056  00000-0 -70542-5 0  9993
2 17527  99.0831  24.6524 0009352 118.5770 251.8081 14.02598953777489
Epoch (UTC): 01 December 2021 09:04:09
Eccentricity: 0.0009352
inclination: 99.0831°
perigee height: 878 km
apogee height: 891 km
right ascension of ascending node: 24.6524°
argument of perigee: 118.5770°
revolutions per day: 14.02598953
mean anomaly at epoch: 251.8081°
orbit number at epoch: 77748

The dashed part of the orbit path shows where the satellite is in the earth's shadow,  

DLR